CW3202 Weather Reports


Display with metric or nautical units.
time (UTC)temp
F
wind
direction
speed
MPH
gust
MPH
rain 1hr
in
rain 24hr
in
rain mn
in
humidity
%
barometer
mb
20260906090624 53 182 0.0 1.0 0.00 0.00 0.00 99 1015.2
20260906090125 53 182 0.0 1.0 0.00 0.00 0.00 99 1015.2
20260906085624 53 182 0.0 1.0 0.00 0.00 0.00 99 1015.3
20260906084925 53 182 0.0 1.0 0.00 0.00 0.00 99 1015.4
20260906084425 53 182 1.0 1.0 0.00 0.00 0.00 99 1015.4
20260906083924 53 182 1.0 1.0 0.00 0.00 0.00 99 1015.3
20260906083424 53 182 0.0 1.0 0.00 0.00 0.00 99 1015.4
20260906082925 53 182 0.0 1.0 0.00 0.00 0.00 99 1015.6
20260906082425 53 182 0.0 1.0 0.00 0.00 0.00 99 1015.6
20260906081924 53 182 1.0 1.0 0.00 0.00 0.00 99 1015.6
20260906081225 53 182 0.0 2.0 0.00 0.00 0.00 99 1015.5
20260906080724 53 182 0.0 2.0 0.00 0.00 0.00 99 1015.5
20260906080225 53 182 0.0 2.0 0.00 0.00 0.00 99 1015.5
20260906075324 52 182 2.0 3.0 0.00 0.00 0.00 99 1015.5
20260906074625 53 182 2.0 3.0 0.00 0.00 0.00 99 1015.3
20260906074124 53 182 3.0 3.0 0.00 0.00 0.00 99 1015.5
20260906073425 53 182 0.0 1.0 0.00 0.00 0.00 99 1015.6
20260906072925 53 182 0.0 1.0 0.00 0.00 0.00 99 1015.6
20260906072424 53 182 1.0 1.0 0.00 0.00 0.00 99 1015.6
20260906071924 53 182 0.0 1.0 0.00 0.00 0.00 99 1015.7
20260906071424 53 182 1.0 1.0 0.00 0.00 0.00 99 1015.6
20260906070924 53 182 1.0 1.0 0.00 0.00 0.00 99 1015.6
20260906070224 53 182 0.0 2.0 0.00 0.00 0.00 99 1015.5
20260906065725 53 182 0.0 2.0 0.00 0.00 0.01 99 1015.4
20260906065224 53 182 1.0 1.0 0.00 0.00 0.01 99 1015.5
20260906064724 52 182 0.0 0.0 0.00 0.00 0.01 99 1015.5
20260906064224 52 182 0.0 1.0 0.00 0.00 0.01 99 1015.4
20260906063724 52 182 0.0 1.0 0.00 0.00 0.01 99 1015.4
20260906063225 52 182 0.0 1.0 0.00 0.00 0.01 99 1015.5
20260906062724 52 182 0.0 1.0 0.00 0.00 0.01 99 1015.6
20260906062224 52 182 1.0 1.0 0.00 0.00 0.01 99 1015.7
20260906061724 52 182 0.0 0.0 0.00 0.00 0.01 99 1015.7
20260906061224 52 182 0.0 1.0 0.00 0.00 0.01 98 1015.7
20260906060724 52 182 0.0 1.0 0.00 0.00 0.01 98 1015.9
20260906060025 52 182 0.0 0.0 0.00 0.00 0.01 98 1015.8
20260906055325 52 182 0.0 0.0 0.00 0.00 0.01 98 1016.0
20260906054824 52 182 0.0 0.0 0.00 0.00 0.01 98 1016.0
20260906054324 52 182 0.0 0.0 0.00 0.00 0.01 98 1016.0
20260906053624 52 182 0.0 1.0 0.00 0.00 0.01 98 1016.2
20260906053125 52 182 0.0 1.0 0.00 0.00 0.01 97 1016.0
20260906052624 52 182 1.0 2.0 0.00 0.00 0.01 97 1016.0
20260906052124 52 182 1.0 2.0 0.00 0.00 0.01 97 1016.1
20260906051624 52 182 1.0 2.0 0.00 0.00 0.01 97 1016.1
20260906051124 52 182 0.0 0.0 0.00 0.00 0.01 97 1016.0
20260906050625 53 182 0.0 0.0 0.00 0.00 0.01 97 1016.0
20260906050124 53 182 0.0 0.0 0.00 0.00 0.01 97 1016.1
20260906045625 53 182 0.0 1.0 0.00 0.00 0.01 97 1016.2
20260906045124 53 182 0.0 1.0 0.00 0.00 0.01 97 1016.1
20260906044625 53 182 0.0 1.0 0.00 0.00 0.01 96 1016.1
20260906044125 54 182 0.0 2.0 0.00 0.00 0.01 96 1016.0
20260906043624 54 182 0.0 2.0 0.00 0.00 0.01 97 1016.1
20260906043124 54 182 0.0 2.0 0.00 0.00 0.01 97 1016.0
20260906042624 54 182 2.0 2.0 0.00 0.00 0.01 96 1016.0
20260906042125 54 182 0.0 0.0 0.00 0.00 0.01 96 1016.0
20260906041625 54 182 0.0 0.0 0.00 0.00 0.01 95 1016.0
20260906040724 55 182 0.0 0.0 0.00 0.00 0.01 96 1016.0
20260906040225 55 182 0.0 0.0 0.00 0.00 0.01 95 1015.9
20260906035725 55 182 0.0 0.0 0.00 0.00 0.01 95 1016.0
20260906035225 55 182 0.0 0.0 0.00 0.00 0.01 94 1015.9
20260906034524 56 182 0.0 0.0 0.00 0.00 0.01 94 1015.7
20260906034024 56 182 0.0 1.0 0.00 0.00 0.01 94 1015.6
20260906033524 57 182 0.0 1.0 0.00 0.00 0.01 94 1015.5
20260906033024 57 182 0.0 1.0 0.00 0.00 0.01 95 1015.5
20260906032525 57 182 0.0 1.0 0.00 0.00 0.01 94 1015.5
20260906032025 58 182 0.0 0.0 0.00 0.00 0.01 92 1015.5
20260906031524 58 182 0.0 0.0 0.00 0.00 0.01 92 1015.5
20260906031024 58 182 0.0 0.0 0.00 0.00 0.01 92 1015.5
20260906030525 59 182 0.0 1.0 0.00 0.00 0.01 91 1015.5
20260906030024 59 182 0.0 1.0 0.00 0.00 0.01 91 1015.6
20260906025525 60 182 0.0 2.0 0.00 0.00 0.01 92 1015.6
20260906025024 60 182 1.0 3.0 0.00 0.00 0.01 92 1015.6
20260906024524 60 182 2.0 3.0 0.00 0.00 0.01 90 1015.6
20260906023824 61 182 3.0 3.0 0.00 0.00 0.01 89 1015.5
20260906023324 62 182 3.0 3.0 0.00 0.00 0.01 87 1015.5
20260906022824 62 182 2.0 6.0 0.00 0.00 0.01 86 1015.5
20260906022325 63 188 2.0 6.0 0.00 0.00 0.01 86 1015.6
20260906021625 63 182 4.0 4.0 0.00 0.00 0.01 86 1015.7
20260906021124 63 180 2.0 2.0 0.00 0.00 0.01 86 1015.6
20260906020624 64 172 1.0 3.0 0.00 0.00 0.01 86 1015.6
20260906020125 64 178 1.0 3.0 0.00 0.00 0.01 86 1015.7
20260906015424 64 183 1.0 4.0 0.00 0.00 0.01 87 1015.7
20260906014924 64 184 2.0 5.0 0.00 0.00 0.01 86 1015.7
20260906014424 64 181 4.0 5.0 0.00 0.00 0.01 86 1015.7
20260906013924 63 171 1.0 4.0 0.00 0.00 0.01 86 1015.7
20260906013424 63 189 1.0 3.0 0.00 0.00 0.01 85 1015.6
20260906012925 64 184 2.0 3.0 0.00 0.00 0.01 85 1015.5
20260906012425 64 196 2.0 2.0 0.00 0.00 0.01 87 1015.4
20260906011925 64 203 2.0 2.0 0.00 0.00 0.01 88 1015.4
20260906011424 64 186 1.0 3.0 0.00 0.00 0.01 88 1015.4
20260906010924 65 182 1.0 3.0 0.00 0.00 0.01 86 1015.4
20260906010425 65 231 3.0 3.0 0.00 0.00 0.01 87 1015.5
20260906005925 66 256 1.0 1.0 0.00 0.00 0.01 85 1015.4
20260906005424 66 256 1.0 1.0 0.00 0.00 0.01 83 1015.4
20260906004925 66 256 0.0 1.0 0.00 0.00 0.01 82 1015.5
20260906004224 66 255 0.0 2.0 0.00 0.00 0.01 80 1015.5
20260906003724 67 254 2.0 2.0 0.00 0.00 0.01 76 1015.4
20260906003225 67 259 2.0 2.0 0.00 0.00 0.01 74 1015.4
20260906002725 67 259 0.0 2.0 0.00 0.00 0.01 72 1015.4
20260906002225 68 259 1.0 2.0 0.00 0.00 0.01 70 1015.4
20260906001724 68 360 1.0 2.0 0.00 0.00 0.01 69 1015.4
20260906001224 69 254 2.0 5.0 0.00 0.00 0.01 68 1015.3
20260906000724 70 282 2.0 5.0 0.00 0.00 0.01 68 1015.4
20260906000226 70 190 1.0 4.0 0.00 0.00 0.01 70 1015.4
20260905235725 69 171 2.0 4.0 0.00 0.00 0.01 70 1015.3
20260905235224 69 188 1.0 4.0 0.00 0.00 0.01 74 1015.3
20260905234725 69 192 4.0 4.0 0.00 0.00 0.01 75 1015.3
20260905234024 68 128 1.0 4.0 0.00 0.00 0.01 77 1015.3
20260905233525 68 125 1.0 4.0 0.00 0.00 0.01 78 1015.2
20260905233025 68 166 4.0 5.0 0.00 0.00 0.01 78 1015.2
20260905232524 68 168 1.0 5.0 0.00 0.00 0.01 76 1015.3
20260905232025 69 156 3.0 4.0 0.00 0.00 0.01 76 1015.4
20260905231525 68 166 3.0 5.0 0.00 0.00 0.01 78 1015.4
20260905230824 68 159 4.0 5.0 0.00 0.00 0.01 82 1015.4
20260905230124 67 184 3.0 6.0 0.00 0.00 0.01 83 1015.4
20260905225625 67 184 6.0 6.0 0.00 0.00 0.01 82 1015.5
20260905225124 66 168 4.0 4.0 0.00 0.00 0.01 85 1015.6
20260905224624 65 360 1.0 3.0 0.00 0.00 0.01 86 1015.6
20260905224124 65 178 1.0 3.0 0.00 0.00 0.01 88 1015.6
20260905223624 64 178 1.0 3.0 0.00 0.00 0.01 86 1015.6
20260905223124 64 183 3.0 3.0 0.00 0.00 0.01 87 1015.6
20260905222424 64 182 2.0 3.0 0.00 0.00 0.01 87 1015.6
20260905221924 65 182 3.0 3.0 0.00 0.00 0.01 87 1015.6
20260905221424 65 182 2.0 7.0 0.00 0.00 0.01 86 1015.7
20260905220925 65 182 2.0 7.0 0.00 0.00 0.01 82 1015.7
20260905220425 66 181 7.0 7.0 0.00 0.00 0.01 80 1015.8
20260905215925 67 159 2.0 3.0 0.00 0.00 0.01 75 1015.8
20260905215424 67 272 0.0 2.0 0.00 0.00 0.01 71 1015.9
20260905214925 67 272 0.0 3.0 0.00 0.00 0.01 71 1015.8
20260905214424 67 272 2.0 5.0 0.00 0.00 0.01 69 1015.8
20260905213925 68 17 3.0 5.0 0.00 0.00 0.01 68 1015.8
20260905213425 68 252 2.0 6.0 0.00 0.00 0.01 73 1015.8
20260905212924 68 260 2.0 7.0 0.00 0.00 0.01 73 1015.9
20260905212424 67 236 4.0 7.0 0.00 0.00 0.01 75 1015.8
20260905211924 67 310 1.0 7.0 0.00 0.00 0.01 73 1015.9
20260905211426 67 252 7.0 7.0 0.00 0.00 0.01 77 1016.0
20260905210925 66 307 2.0 5.0 0.00 0.00 0.01 77 1016.0
20260905210424 66 355 3.0 5.0 0.00 0.00 0.01 76 1016.1
20260905205925 67 19 4.0 4.0 0.00 0.00 0.01 75 1016.1
20260905205224 66 234 2.0 3.0 0.00 0.00 0.01 77 1016.1
20260905204725 66 245 2.0 4.0 0.00 0.00 0.01 76 1016.1
20260905204224 66 246 2.0 4.0 0.00 0.00 0.01 77 1016.1
20260905203724 66 212 4.0 4.0 0.00 0.00 0.01 77 1016.1
20260905203224 65 278 2.0 5.0 0.00 0.00 0.01 78 1016.2
20260905202724 65 242 2.0 5.0 0.00 0.00 0.01 77 1016.1
20260905202225 65 238 1.0 4.0 0.00 0.00 0.01 77 1016.2
20260905201725 66 235 2.0 4.0 0.00 0.00 0.01 75 1016.1
20260905201025 66 202 1.0 4.0 0.00 0.00 0.01 71 1016.2
20260905200525 66 202 0.0 4.0 0.00 0.00 0.01 72 1016.2
20260905195824 66 207 2.0 5.0 0.00 0.00 0.01 74 1016.2
20260905195125 66 208 5.0 5.0 0.00 0.00 0.01 74 1016.3
20260905194624 66 184 2.0 4.0 0.00 0.00 0.01 76 1016.3
20260905194124 66 161 1.0 2.0 0.00 0.00 0.01 77 1016.4
20260905193624 65 167 1.0 3.0 0.00 0.00 0.01 79 1016.5
20260905192925 64 301 0.0 3.0 0.00 0.00 0.01 77 1016.5
20260905192424 64 301 2.0 2.0 0.00 0.00 0.01 75 1016.6
20260905191724 64 301 1.0 2.0 0.00 0.00 0.01 76 1016.6
20260905191224 64 301 0.0 2.0 0.00 0.00 0.01 75 1016.7
20260905190724 64 301 0.0 2.0 0.00 0.00 0.01 76 1016.7
20260905190224 64 301 2.0 2.0 0.00 0.00 0.01 75 1016.6
20260905185524 64 301 0.0 2.0 0.00 0.00 0.01 75 1016.7
20260905185025 64 301 1.0 2.0 0.00 0.00 0.01 75 1016.6
20260905184325 64 340 0.0 3.0 0.00 0.00 0.01 76 1016.6
20260905183824 64 13 0.0 3.0 0.00 0.00 0.01 76 1016.7
20260905183324 64 316 2.0 3.0 0.00 0.00 0.01 76 1016.7
20260905182424 65 29 2.0 3.0 0.00 0.00 0.01 73 1016.8
20260905181925 65 64 1.0 4.0 0.00 0.00 0.01 76 1016.8
20260905181425 65 84 3.0 4.0 0.00 0.00 0.01 78 1016.9
20260905180925 64 161 2.0 4.0 0.00 0.00 0.01 78 1016.9
20260905180424 63 293 2.0 4.0 0.00 0.00 0.01 83 1016.9
20260905175925 63 215 1.0 4.0 0.00 0.00 0.01 82 1017.0
20260905175226 64 181 1.0 7.0 0.00 0.00 0.01 83 1017.0
20260905174724 64 87 0.0 7.0 0.00 0.00 0.01 82 1017.0
20260905174225 62 74 7.0 7.0 0.00 0.00 0.01 85 1016.9
20260905173724 62 314 3.0 3.0 0.00 0.00 0.01 84 1017.0
20260905173224 62 14 3.0 3.0 0.00 0.00 0.01 88 1017.0
20260905172724 61 266 2.0 2.0 0.00 0.00 0.01 90 1017.0
20260905172224 61 267 2.0 3.0 0.00 0.00 0.01 91 1017.0
20260905171724 60 288 2.0 3.0 0.00 0.00 0.01 92 1016.9
20260905171225 59 315 2.0 2.0 0.00 0.00 0.01 95 1016.9
20260905170725 59 223 1.0 3.0 0.00 0.00 0.01 95 1017.0
20260905170225 58 217 1.0 4.0 0.00 0.00 0.01 95 1017.2
20260905165726 58 217 1.0 4.0 0.00 0.00 0.01 98 1017.2
20260905165224 58 228 4.0 4.0 0.00 0.00 0.01 99 1017.2
20260905164725 57 261 0.0 2.0 0.00 0.00 0.01 100 1017.1
20260905164224 56 273 2.0 2.0 0.00 0.00 0.01 100 1017.2
20260905163725 56 273 1.0 2.0 0.00 0.00 0.01 100 1017.1
20260905163225 56 291 2.0 2.0 0.00 0.00 0.01 100 1017.1
20260905162725 55 291 2.0 2.0 0.00 0.00 0.01 100 1017.1
20260905161624 53 288 1.0 1.0 0.00 0.00 0.01 100 1017.1
20260905160924 53 288 0.0 1.0 0.00 0.00 0.01 100 1017.1
20260905160424 53 321 0.0 1.0 0.00 0.00 0.01 100 1017.2
20260905155925 53 321 1.0 2.0 0.00 0.00 0.01 100 1017.2
20260905155425 52 321 0.0 2.0 0.00 0.00 0.01 100 1017.2
20260905154925 52 355 1.0 2.0 0.00 0.00 0.01 100 1017.3
20260905154424 51 355 0.0 2.0 0.00 0.00 0.01 100 1017.3
20260905153924 50 355 1.0 1.0 0.00 0.00 0.01 100 1017.3
20260905153424 50 355 0.0 0.0 0.00 0.00 0.01 100 1017.3
20260905152924 50 355 0.0 1.0 0.00 0.00 0.01 100 1017.5
20260905152424 50 355 0.0 1.0 0.00 0.00 0.01 100 1017.5
20260905151924 50 355 0.0 1.0 0.00 0.00 0.01 100 1017.4
20260905151424 50 355 1.0 1.0 0.00 0.00 0.01 100 1017.4
20260905150924 49 355 0.0 1.0 0.00 0.00 0.01 100 1017.5
20260905150424 49 355 1.0 1.0 0.00 0.00 0.01 100 1017.5
20260905145925 49 355 0.0 1.0 0.00 0.00 0.01 100 1017.4
20260905145425 48 355 0.0 1.0 0.00 0.00 0.01 100 1017.4
20260905144724 48 355 0.0 1.0 0.00 0.00 0.01 100 1017.3
20260905144224 48 355 1.0 1.0 0.00 0.00 0.01 100 1017.3
20260905143725 48 355 0.0 1.0 0.00 0.00 0.01 100 1017.2
20260905143225 48 355 0.0 1.0 0.00 0.00 0.01 100 1017.3
20260905142724 48 355 1.0 1.0 0.00 0.00 0.01 100 1017.2
20260905142224 48 355 0.0 1.0 0.00 0.00 0.01 100 1017.3
20260905141724 48 355 0.0 1.0 0.00 0.00 0.01 100 1017.1
20260905141225 48 355 0.0 0.0 0.00 0.00 0.01 100 1017.0
20260905140724 48 355 0.0 0.0 0.00 0.00 0.01 100 1017.0
20260905140225 48 355 0.0 0.0 0.00 0.00 0.01 100 1017.0
20260905135725 48 355 0.0 1.0 0.00 0.00 0.01 100 1017.0
20260905135224 48 355 0.0 1.0 0.00 0.00 0.01 100 1017.0
20260905134724 48 355 0.0 0.0 0.00 0.00 0.01 100 1016.9
20260905134224 48 355 0.0 1.0 0.00 0.00 0.01 100 1017.0
20260905133724 48 355 0.0 2.0 0.00 0.00 0.01 100 1017.0
20260905133224 48 355 0.0 2.0 0.00 0.00 0.01 100 1016.9
20260905132724 48 355 1.0 2.0 0.00 0.00 0.01 100 1016.9
20260905132224 48 355 1.0 2.0 0.00 0.00 0.01 100 1016.9
20260905131724 48 355 1.0 1.0 0.00 0.00 0.01 100 1016.9
20260905131225 48 355 1.0 1.0 0.00 0.00 0.01 100 1017.0
20260905130725 48 355 1.0 1.0 0.00 0.00 0.01 100 1016.9
20260905130225 48 355 1.0 1.0 0.00 0.00 0.01 100 1016.9
20260905125724 48 355 0.0 2.0 0.00 0.00 0.01 100 1017.0
20260905125224 48 355 1.0 2.0 0.00 0.00 0.01 100 1017.0
20260905124724 48 355 2.0 2.0 0.00 0.00 0.01 100 1017.0
20260905124224 48 355 2.0 2.0 0.00 0.00 0.01 100 1016.9
20260905123524 48 355 0.0 0.0 0.00 0.00 0.01 100 1016.9
20260905123024 48 355 0.0 0.0 0.00 0.00 0.01 100 1016.8
20260905122524 48 355 0.0 0.0 0.00 0.00 0.01 100 1016.7
20260905122024 48 355 0.0 0.0 0.00 0.00 0.01 100 1016.8
20260905121325 48 355 0.0 0.0 0.00 0.00 0.01 100 1016.8
20260905120824 48 355 0.0 0.0 0.00 0.00 0.01 100 1016.7
20260905120325 48 355 0.0 0.0 0.00 0.00 0.01 100 1016.7
20260905115824 48 355 0.0 0.0 0.00 0.00 0.01 100 1016.7
20260905115324 48 355 0.0 0.0 0.00 0.00 0.01 100 1016.6
20260905114825 48 355 0.0 1.0 0.00 0.00 0.01 100 1016.6
20260905114325 48 355 0.0 1.0 0.00 0.00 0.01 99 1016.6
20260905113825 48 355 0.0 1.0 0.00 0.00 0.01 99 1016.5
20260905113324 48 355 1.0 2.0 0.00 0.00 0.01 99 1016.6
20260905112825 48 355 0.0 2.0 0.00 0.00 0.01 99 1016.5
20260905112325 48 355 1.0 2.0 0.00 0.00 0.01 99 1016.6
20260905111824 48 355 0.0 2.0 0.00 0.00 0.01 100 1016.5
20260905111325 48 355 0.0 2.0 0.00 0.00 0.01 100 1016.6
20260905110624 48 355 1.0 3.0 0.00 0.00 0.01 100 1016.5
20260905110125 48 355 2.0 3.0 0.00 0.00 0.01 100 1016.6
20260905105624 48 227 2.0 2.0 0.00 0.00 0.01 100 1016.5
20260905105124 48 227 2.0 2.0 0.00 0.00 0.01 100 1016.5
20260905104625 48 227 0.0 1.0 0.00 0.00 0.00 99 1016.6
20260905104124 48 227 1.0 1.0 0.00 0.00 0.00 100 1016.6
20260905103625 48 227 0.0 1.0 0.00 0.00 0.00 99 1016.6
20260905103125 48 227 0.0 0.0 0.00 0.00 0.00 99 1016.6
20260905102624 48 227 0.0 0.0 0.00 0.00 0.00 100 1016.6
20260905102125 48 227 0.0 1.0 0.00 0.00 0.00 100 1016.6
20260905101624 48 227 0.0 1.0 0.00 0.00 0.00 100 1016.6
20260905101125 48 227 0.0 1.0 0.00 0.00 0.00 99 1016.6
20260905100624 48 227 1.0 1.0 0.00 0.00 0.00 99 1016.5
20260905100124 48 227 0.0 0.0 0.00 0.00 0.00 99 1016.5
20260905095624 48 227 0.0 0.0 0.00 0.00 0.00 99 1016.6
20260905095125 48 227 0.0 1.0 0.00 0.00 0.00 99 1016.6
20260905094624 48 227 0.0 1.0 0.00 0.00 0.00 99 1016.6
20260905094125 48 227 0.0 1.0 0.00 0.00 0.00 99 1016.6
20260905093425 48 227 1.0 1.0 0.00 0.00 0.00 99 1016.6
20260905092924 48 227 0.0 0.0 0.00 0.00 0.00 99 1016.5
20260905092424 48 227 0.0 1.0 0.00 0.00 0.00 99 1016.5
20260905091925 48 227 0.0 1.0 0.00 0.00 0.00 99 1016.6
20260905091425 48 227 0.0 1.0 0.00 0.00 0.00 99 1016.6